Martinsville, VA

3:55 PM EDT on May 20, 2018 (GMT -0400)
Blue Ridge

Weather History for KMTV - February, 2013

Change the Weather History Date:

Sunday, February 10, 2013

  Actual Average (KINT) Record (KINT)
Temperature  
Mean Temperature 38 °F -  
Max Temperature 53 °F 49 °F 70 °F (1991)
Min Temperature 23 °F 32 °F 5 °F (1979)
Degree Days  
Heating Degree Days 27    
Moisture  
Dew Point 22 °F    
Average Humidity 58    
Maximum Humidity 100    
Minimum Humidity 22    
Precipitation  
Precipitation 0.08 in - - ()
Sea Level Pressure  
Sea Level Pressure 30.35 in    
Wind  
Wind Speed 1 mph (SSE)    
Max Wind Speed 9 mph    
Max Gust Speed -    
Visibility 10 miles    
Events Rain    
Averages and records for this station are not official NWS values.
T = Trace of Precipitation, MM = Missing Value Source: NWS Daily Summary

Daily Weather History Graph

Daily Weather History Graph

Search for Another Location

Airport or City:

Astronomy

Feb. 10, 2013 Rise Set
Actual Time 7:13 AM EST 5:55 PM EST
Civil Twilight 6:46 AM EST 6:22 PM EST
Nautical Twilight 6:16 AM EST 6:52 PM EST
Astronomical Twilight 5:46 AM EST 7:23 PM EST
Moon 7:04 AM EST (2/10) 6:41 PM EST (2/10)
Length of Visible Light 11h 35m
Length of Day
10h 42m
New Moon, 0% of the Moon is Illuminated
Feb 10
New Moon
Feb 17
First Quarter
Feb 25
Full
Mar 4
Last Quarter
Mar 11
New

Hourly Weather History & Observations

Time (EST) Temp. Windchill Dew Point Humidity Pressure Visibility Wind Dir Wind Speed Gust Speed Precip Events Conditions
12:15 AM 26.6 °F - 19.4 °F 74% 30.36 in 10.0 mi Calm Calm - N/A   Clear
12:35 AM 26.6 °F - 19.4 °F 74% 30.37 in 10.0 mi Calm Calm - N/A   Clear
12:55 AM 26.6 °F - 19.4 °F 74% 30.37 in 10.0 mi Calm Calm - N/A   Clear
1:15 AM 26.6 °F - 19.4 °F 74% 30.36 in 10.0 mi Calm Calm - N/A   Clear
1:35 AM 24.8 °F - 19.4 °F 80% 30.37 in 10.0 mi Calm Calm - N/A   Clear
1:55 AM 24.8 °F - 19.4 °F 80% 30.38 in 10.0 mi Calm Calm - N/A   Clear
2:15 AM 24.8 °F - 19.4 °F 80% 30.38 in 10.0 mi Calm Calm - N/A   Clear
2:35 AM 24.8 °F - 19.4 °F 80% 30.39 in 10.0 mi Calm Calm - N/A   Clear
2:55 AM 24.8 °F - 19.4 °F 80% 30.39 in 10.0 mi Calm Calm - N/A   Clear
3:15 AM 24.8 °F - 19.4 °F 80% 30.39 in 10.0 mi Calm Calm - N/A   Clear
3:35 AM 23.0 °F - 19.4 °F 86% 30.39 in 10.0 mi Calm Calm - N/A   Clear
3:55 AM 24.8 °F - 19.4 °F 80% 30.39 in 10.0 mi Calm Calm - N/A   Clear
4:15 AM 23.0 °F - 19.4 °F 86% 30.39 in 10.0 mi Calm Calm - N/A   Clear
4:35 AM 24.8 °F - 19.4 °F 80% 30.39 in 10.0 mi Calm Calm - N/A   Clear
4:55 AM 23.0 °F - 19.4 °F 86% 30.39 in 10.0 mi Calm Calm - N/A   Clear
5:15 AM 23.0 °F - 19.4 °F 86% 30.40 in 10.0 mi Calm Calm - N/A   Clear
5:35 AM 24.8 °F - 19.4 °F 80% 30.40 in 10.0 mi Calm Calm - N/A   Clear
5:55 AM 24.8 °F - 19.4 °F 80% 30.41 in 10.0 mi Calm Calm - N/A   Clear
6:15 AM 24.8 °F - 21.2 °F 86% 30.42 in 10.0 mi Calm Calm - N/A   Clear
6:35 AM 26.6 °F - 21.2 °F 80% 30.42 in 10.0 mi Calm Calm - N/A   Clear
6:55 AM 26.6 °F - 21.2 °F 80% 30.44 in 10.0 mi Calm Calm - N/A   Clear
7:15 AM 26.6 °F - 23.0 °F 86% 30.45 in 10.0 mi Calm Calm - N/A   Clear
7:35 AM 28.4 °F - 21.2 °F 74% 30.45 in 10.0 mi Calm Calm - N/A   Clear
8:15 AM 30.2 °F - 24.8 °F 80% 30.47 in 10.0 mi Calm Calm - N/A   Clear
8:35 AM 32.0 °F - 24.8 °F 75% 30.47 in 10.0 mi Calm Calm - N/A   Clear
8:55 AM 33.8 °F - 23.0 °F 65% 30.48 in 10.0 mi Calm Calm - N/A   Clear
9:15 AM 35.6 °F - 21.2 °F 56% 30.47 in 10.0 mi Calm Calm - N/A   Clear
9:35 AM 35.6 °F - 21.2 °F 56% 30.46 in 10.0 mi Calm Calm - N/A   Clear
9:55 AM 37.4 °F 33.8 °F 19.4 °F 48% 30.47 in 10.0 mi ESE 4.6 mph - N/A   Clear
10:15 AM 37.4 °F 34.9 °F 17.6 °F 45% 30.49 in 10.0 mi SSE 3.5 mph - N/A   Clear
10:35 AM 39.2 °F 37.0 °F 15.8 °F 39% 30.47 in 10.0 mi ESE 3.5 mph - N/A   Clear
10:55 AM 41.0 °F 37.1 °F 15.8 °F 36% 30.46 in 10.0 mi SE 5.8 mph - N/A   Clear
11:15 AM 42.8 °F - 15.8 °F 34% 30.46 in 10.0 mi Calm Calm - N/A   Clear
11:35 AM 44.6 °F 42.2 °F 14.0 °F 29% 30.45 in 10.0 mi SSE 4.6 mph - N/A   Clear
11:55 AM 46.4 °F 45.2 °F 17.6 °F 32% 30.43 in 10.0 mi South 3.5 mph - N/A   Clear
12:15 PM 46.4 °F 44.3 °F 15.8 °F 29% 30.42 in 10.0 mi SW 4.6 mph - N/A   Clear
12:35 PM 48.2 °F - 17.6 °F 30% 30.40 in 10.0 mi SE 5.8 mph - N/A   Clear
12:55 PM 48.2 °F - 19.4 °F 32% 30.38 in 10.0 mi SE 9.2 mph - N/A   Clear
1:15 PM 50.0 °F - 17.6 °F 28% 30.37 in 10.0 mi ESE 3.5 mph - N/A   Clear
1:35 PM 51.8 °F - 15.8 °F 24% 30.35 in 10.0 mi SW 4.6 mph - N/A   Clear
1:55 PM 51.8 °F - 17.6 °F 26% 30.35 in 10.0 mi SE 6.9 mph - N/A   Clear
2:15 PM 53.6 °F - 17.6 °F 24% 30.34 in 10.0 mi South 4.6 mph - N/A   Clear
2:35 PM 53.6 °F - 15.8 °F 22% 30.32 in 10.0 mi South 5.8 mph - N/A   Clear
2:55 PM 53.6 °F - 15.8 °F 22% 30.30 in 10.0 mi Calm Calm - N/A   Clear
3:15 PM 53.6 °F - 15.8 °F 22% 30.30 in 10.0 mi SE 9.2 mph - N/A   Clear
3:35 PM 53.6 °F - 15.8 °F 22% 30.31 in 10.0 mi SSE 4.6 mph - N/A   Clear
3:55 PM 53.6 °F - 15.8 °F 22% 30.30 in 10.0 mi South 8.1 mph - N/A   Clear
4:15 PM 53.6 °F - 15.8 °F 22% 30.29 in 10.0 mi Calm Calm - N/A   Clear
4:35 PM 51.8 °F - 15.8 °F 24% 30.28 in 10.0 mi SSE 6.9 mph - N/A   Clear
4:55 PM 51.8 °F - 15.8 °F 24% 30.29 in 10.0 mi SSE 5.8 mph - N/A   Clear
5:15 PM 51.8 °F - 17.6 °F 26% 30.29 in 10.0 mi SSE 3.5 mph - N/A   Clear
5:35 PM 50.0 °F - 17.6 °F 28% 30.26 in 10.0 mi SE 4.6 mph - N/A   Clear
5:55 PM 48.2 °F - 17.6 °F 30% 30.27 in 10.0 mi SSE 3.5 mph - N/A   Clear
6:15 PM 48.2 °F - 17.6 °F 30% 30.27 in 10.0 mi Calm Calm - N/A   Clear
6:35 PM 48.2 °F - 17.6 °F 30% 30.29 in 10.0 mi Calm Calm - N/A   Scattered Clouds
6:55 PM 48.2 °F - 19.4 °F 32% 30.29 in 10.0 mi Calm Calm - N/A   Mostly Cloudy
7:15 PM 48.2 °F - 19.4 °F 32% 30.29 in 10.0 mi Calm Calm - N/A   Mostly Cloudy
7:35 PM 46.4 °F - 19.4 °F 34% 30.28 in 10.0 mi Calm Calm - N/A   Scattered Clouds
7:55 PM 46.4 °F - 19.4 °F 34% 30.28 in 10.0 mi Calm Calm - N/A   Scattered Clouds
8:15 PM 46.4 °F - 21.2 °F 37% 30.29 in 10.0 mi Calm Calm - N/A   Mostly Cloudy
8:35 PM 48.2 °F - 21.2 °F 34% 30.29 in 10.0 mi Calm Calm - N/A   Light Drizzle
8:55 PM 44.6 °F - 30.2 °F 57% 30.28 in 10.0 mi Calm Calm - N/A Rain Light Rain
9:15 PM 41.0 °F - 41.0 °F 100% 30.29 in 10.0 mi Calm Calm - 0.03 in Rain Rain
9:35 PM 41.0 °F - 41.0 °F 100% 30.27 in 7.0 mi Calm Calm - 0.06 in Rain Rain
9:55 PM 41.0 °F 38.0 °F 41.0 °F 100% 30.25 in 7.0 mi SE 4.6 mph - 0.01 in Rain Light Rain
10:15 PM 41.0 °F - 41.0 °F 100% 30.22 in 10.0 mi Calm Calm - 0.02 in Rain Rain
10:35 PM 41.0 °F - 41.0 °F 100% 30.23 in 10.0 mi Calm Calm - 0.02 in Rain Light Rain
10:55 PM 41.0 °F 39.0 °F 41.0 °F 100% 30.23 in 10.0 mi NW 3.5 mph - N/A   Overcast
11:15 PM 41.0 °F - 41.0 °F 100% 30.22 in 10.0 mi Calm Calm - N/A   Overcast
11:35 PM 41.0 °F - 41.0 °F 100% 30.21 in 10.0 mi Calm Calm - N/A   Overcast
11:55 PM 41.0 °F - 41.0 °F 100% 30.20 in 7.0 mi Calm Calm - N/A   Drizzle